* Astronomy

Members Login
Username 
 
Password 
    Remember Me  
Post Info TOPIC: Asteroid 2012 HH2


L

Posts: 131433
Date:
RE: Asteroid 2012 HH2
Permalink  
 


Orbital elements:
2012 HH2
Epoch 2012 Mar. 14.0 TT = JDT 2456000.5                 MPC
M  24.32123              (2000.0)            P               Q
n   0.00479663     Peri.  100.29264     -0.81860840     -0.41336964
a  34.8213030      Node    56.42808     +0.11441244     -0.79771869
e   0.1626079      Incl.   28.59318     +0.56284108     -0.43905629
P 205              H    6.2           G   0.15           U   7

MPEC 2012 - L20



__________________


L

Posts: 131433
Date:
Permalink  
 

Orbital elements:
2012 HH2
Epoch 2012 Mar. 14.0 TT = JDT 2456000.5                 MPC
M  32.60128              (2000.0)            P               Q
n   0.00419481     Peri.   72.89337     -0.55383826     -0.73176766
a  38.0768691      Node    57.55556     +0.46387711     -0.66734851
e   0.3134105      Incl.   28.07859     +0.69143416     -0.13842710
P 235              H    6.2           G   0.15           U   2

MPEC 2012 - J31



__________________
Page 1 of 1  sorted by
 
Quick Reply

Please log in to post quick replies.



Create your own FREE Forum
Report Abuse
Powered by ActiveBoard